[ hide orbit diagram ]
For accurate long-term ephemerides, please instead use our Horizons system.This orbit viewer was implemented using two-body methods, and hence should not be used for determining accurate long-term trajectories (over several years or decades) or planetary encounter circumstances.
Orbital Elements at Epoch 2459200.5 (2020-Dec-17.0) TDB
Reference: JPL 33 (heliocentric ecliptic J2000)
Element | Value | Uncertainty (1-sigma) | Units |
e | .07654269862669072 | 4.0724e-08 | |
a | 2.15122061283725 | 6.2536e-09 | au |
q | 1.986560381789323 | 8.9235e-08 | au |
i | 2.550803492459954 | 3.0648e-06 | deg |
node | 227.5987415175796 | 8.1904e-05 | deg |
peri | 330.6066189411274 | 8.4559e-05 | deg |
M | 41.76952874953171 | 2.1293e-05 | deg |
tp | 2459066.784138253153 (2020-Aug-05.28413825) | 6.8149e-05 | TDB |
period | 1152.459979079955 3.16 | 5.0253e-06 1.376e-08 | d yr |
n | .3123752724909365 | 1.3621e-09 | deg/d |
Q | 2.315880843885176 | 6.7322e-09 | au |
|
| | Orbit Determination Parameters
Additional Information
|
[ show covariance matrix ]
Physical Parameter Table
Parameter |
Symbol |
Value |
Units |
Sigma |
Reference |
Notes |
absolute magnitude |
H |
14.86 |
|
n/a |
E2021B10 |
|
diameter |
diameter |
3.049 |
km |
0.133 |
urn:nasa:pds:neowise_diameters_albedos::2.0[mainbelt] (http://adsabs.harvard.edu/abs/2011ApJ...741...68M) |
|
geometric albedo |
albedo |
0.330 |
|
0.064 |
urn:nasa:pds:neowise_diameters_albedos::2.0[mainbelt] (http://adsabs.harvard.edu/abs/2011ApJ...741...68M) |
|
|
11679 Brucebaker | Discovered 1998 Feb. 25 by the Near-Earth Asteroid Tracking Team (NEAT) at Haleakala, Maui, HI. |
Bruce Baker (b. 1949) fabricated and installed the mechanical portions of the slip rings and assisted in the fabrication of many small mechanical assemblies needed throughout the upgrade of the 1.2-m Schmidt at Palomar. |
NOTE: some special characters may not display properly (any characters within {} are an attempt to place the proper accent above a character) |
Reference: 20020128/MPCPages.arc | Last Updated: 2003-10-02 |
|
[ show close-approach data ]
|